DELTA 1 DEB, 10871

Orbit data source: Space-Track

DELTA 1 DEB, 10871 is space debris in SSO originally from a launch on Thu, 29 Jul 1976 UTC launched from the Air Force Western Test Range (AFWTR). Debris objects in space refer to the collection of defunct objects orbiting the Earth. Examples of debris include non-operational satellites, rocket bodies, and fragments generated from explosions, collisions, or faulty payload assembly.

Loading next visibility...
Identifier
10871, 1976-077CZ
Orbit
SSO
Country
Flag of USUS
Related business
Manufacturer
Unknown
Mission
Spacecraft
Bus & Motor
Unknown
Mass
Unknown
Launch date (UTC)
1976-07-29 (49 years ago)
Launch vehicle
Unknown
Launch site
Air Force Western Test Range (AFWTR)
Object type
Payload
Rocket body
Debris
Shape & HBR
Unknown shape, 0.1 m
Radar Cross Section
Small (<0.1 m²)

Expand to show TLE details & history
Last TLE update: 2 days ago

TLE from 2 days ago
0 DELTA 1 DEB
1 10871U 76077CZ  25300.87882597  .00000342  00000-0  26305-2 0  9995
2 10871 101.8622 280.2917 0270648 203.3503 168.6151 12.37479213218627
Epoch: 2025-10-27T21:05Z
TLE epoch observation values (Epoch: 2025-10-27T21:05:30.563Z)
Latitude
12.24995°
Longitude
-75.16147°
Altitude
1,728.845 km
Speed
6.92 km/s
True Right ascension
18h 30m 45s
True Declination
12° 11' 15"
Sunlit
Object was in daylight at epoch
Visualization orbit readout
Latitude
Unknown
Longitude
Unknown
Altitude
Unknown
Speed
Unknown
Apparent Right ascension
Unknown
Apparent Declination
Unknown
Sunlit
N/A
Visualization observer readout
Local Sidereal Time
05:15:26
Azimuth
Unknown
Elevation
Unknown
Doppler factor
Unknown
Orbital elements
Apogee altitude
1,728.497 km
Perigee altitude
1,301.252 km
Semi-major axis
7,893.011 km
Eccentricity
0.02706
Inclination
101.8622°
RAAN
280.2917°
Arg. of periapsis
203.3503°
True anomaly
169.20763°
Mean anomaly
168.6151°
Eccentric anomaly
168.91329°
Mean motion
3.09513 °/min
Orbital period
116.31 mins
BSTAR
0.0026305
Loading maneuver chart data...
Computing Atmospheric mass density...
Loading historical data...
Loading historical data...
Loading historical data...
Loading historical data...
Loading historical data...
Loading historical data...
Loading historical data...

Documentation

Showing up to 5 results
|